| time (UTC) | temp C | wind direction | speed KPH | gust KPH | rain 1hr cm | rain 24hr cm | rain mn cm | humidity % | barometer mb |
| 20260508170023 | 18 | 284 | 0.0 | 6.4 | 0.00 | 0.00 | 0.00 | 62 | 1011.3 |
| 20260508164526 | 17 | 219 | 0.0 | 0.0 | 0.00 | 0.00 | 0.00 | 65 | 1011.7 |
| 20260508163016 | 17 | 196 | 0.0 | 0.0 | 0.00 | 0.00 | 0.00 | 65 | 1012.0 |
| 20260508161519 | 16 | 144 | 0.0 | 0.0 | 0.00 | 0.00 | 0.00 | 64 | 1012.0 |
| 20260508160016 | 16 | 199 | 0.0 | 4.8 | 0.00 | 0.00 | 0.00 | 65 | 1012.2 |
| 20260508154512 | 16 | 181 | 0.0 | 11.3 | 0.00 | 0.00 | 0.00 | 65 | 1012.4 |
| 20260508153011 | 16 | 191 | 0.0 | 4.8 | 0.00 | 0.00 | 0.00 | 65 | 1012.4 |
| 20260508151511 | 16 | 189 | 0.0 | 8.0 | 0.00 | 0.00 | 0.00 | 65 | 1012.3 |
| 20260508150009 | 16 | 229 | 0.0 | 8.0 | 0.00 | 0.00 | 0.00 | 65 | 1012.6 |
| 20260508144508 | 16 | 263 | 0.0 | 11.3 | 0.00 | 0.00 | 0.00 | 63 | 1013.0 |
| 20260508143007 | 17 | 205 | 0.0 | 4.8 | 0.00 | 0.00 | 0.00 | 61 | 1013.1 |
| 20260508141507 | 17 | 192 | 0.0 | 11.3 | 0.00 | 0.00 | 0.00 | 58 | 1013.1 |
| 20260508140003 | 17 | 202 | 0.0 | 0.0 | 0.00 | 0.00 | 0.00 | 61 | 1012.8 |
| 20260508134601 | 16 | 239 | 0.0 | 6.4 | 0.00 | 0.00 | 0.00 | 65 | 1013.0 |
| 20260508133055 | 15 | 227 | 0.0 | 1.6 | 0.00 | 0.00 | 0.00 | 69 | 1012.8 |
| 20260508131557 | 13 | 199 | 0.0 | 0.0 | 0.00 | 0.00 | 0.00 | 72 | 1012.9 |
| 20260508130106 | 13 | 189 | 0.0 | 0.0 | 0.00 | 0.00 | 0.00 | 74 | 1013.0 |
| 20260508124543 | 12 | 186 | 0.0 | 3.2 | 0.00 | 0.00 | 0.00 | 75 | 1013.0 |
| 20260508123042 | 12 | 185 | 0.0 | 0.0 | 0.00 | 0.00 | 0.00 | 75 | 1013.0 |
| 20260508121549 | 12 | 185 | 0.0 | 0.0 | 0.00 | 0.00 | 0.00 | 75 | 1013.0 |
| 20260508120039 | 11 | 82 | 0.0 | 0.0 | 0.00 | 0.00 | 0.00 | 76 | 1012.9 |
| 20260508114537 | 11 | 80 | 0.0 | 1.6 | 0.00 | 0.00 | 0.00 | 76 | 1012.9 |
| 20260508113042 | 10 | 202 | 0.0 | 0.0 | 0.00 | 0.00 | 0.00 | 75 | 1012.8 |
| 20260508111536 | 10 | 201 | 0.0 | 3.2 | 0.00 | 0.00 | 0.00 | 75 | 1012.7 |
| 20260508110036 | 10 | 202 | 0.0 | 1.6 | 0.00 | 0.00 | 0.00 | 74 | 1012.6 |
| 20260508104559 | 10 | 202 | 0.0 | 0.0 | 0.00 | 0.00 | 0.00 | 73 | 1012.7 |
| 20260508103042 | 10 | 202 | 0.0 | 0.0 | 0.00 | 0.00 | 0.00 | 73 | 1012.7 |
| 20260508101531 | 10 | 202 | 0.0 | 1.6 | 0.00 | 0.00 | 0.00 | 71 | 1012.8 |
| 20260508100033 | 10 | 202 | 0.0 | 1.6 | 0.00 | 0.00 | 0.00 | 72 | 1012.8 |
| 20260508094529 | 10 | 188 | 0.0 | 3.2 | 0.00 | 0.00 | 0.00 | 72 | 1012.9 |
| 20260508093028 | 10 | 188 | 0.0 | 0.0 | 0.00 | 0.00 | 0.00 | 72 | 1013.0 |
| 20260508091527 | 10 | 188 | 0.0 | 0.0 | 0.00 | 0.00 | 0.00 | 73 | 1013.0 |
| 20260508090028 | 10 | 188 | 0.0 | 3.2 | 0.00 | 0.00 | 0.00 | 74 | 1013.0 |
| 20260508084524 | 9 | 184 | 0.0 | 0.0 | 0.00 | 0.00 | 0.00 | 76 | 1012.9 |
| 20260508083022 | 10 | 184 | 0.0 | 0.0 | 0.00 | 0.00 | 0.00 | 75 | 1012.9 |
| 20260508081522 | 10 | 184 | 0.0 | 0.0 | 0.00 | 0.00 | 0.00 | 73 | 1012.9 |
| 20260508080020 | 10 | 184 | 0.0 | 0.0 | 0.00 | 0.00 | 0.00 | 73 | 1013.0 |
| 20260508074520 | 10 | 184 | 0.0 | 0.0 | 0.00 | 0.00 | 0.00 | 74 | 1013.1 |
| 20260508073022 | 10 | 184 | 0.0 | 0.0 | 0.00 | 0.00 | 0.00 | 75 | 1013.1 |
| 20260508071517 | 10 | 270 | 0.0 | 0.0 | 0.00 | 0.00 | 0.00 | 74 | 1013.2 |
| 20260508070021 | 10 | 270 | 0.0 | 0.0 | 0.00 | 0.00 | 0.00 | 75 | 1013.4 |
| 20260508064510 | 10 | 270 | 0.0 | 0.0 | 0.00 | 0.00 | 0.00 | 73 | 1013.5 |
| 20260508063006 | 10 | 270 | 0.0 | 0.0 | 0.00 | 0.00 | 0.00 | 72 | 1013.8 |
| 20260508061507 | 11 | 270 | 0.0 | 0.0 | 0.00 | 0.00 | 0.00 | 70 | 1013.9 |
| 20260508060100 | 11 | 270 | 0.0 | 0.0 | 0.00 | 0.00 | 0.00 | 67 | 1014.0 |
| 20260508054558 | 11 | 270 | 0.0 | 0.0 | 0.00 | 0.00 | 0.00 | 66 | 1014.1 |
| 20260508053105 | 12 | 270 | 0.0 | 0.0 | 0.00 | 0.00 | 0.00 | 65 | 1014.1 |
| 20260508051554 | 12 | 270 | 0.0 | 0.0 | 0.00 | 0.00 | 0.00 | 64 | 1014.0 |
| 20260508050058 | 12 | 270 | 0.0 | 3.2 | 0.00 | 0.00 | 0.00 | 64 | 1014.1 |
| 20260508044552 | 12 | 271 | 0.0 | 0.0 | 0.00 | 0.00 | 0.00 | 64 | 1014.1 |
| 20260508043101 | 12 | 271 | 0.0 | 0.0 | 0.00 | 0.00 | 0.00 | 64 | 1014.2 |
| 20260508041550 | 12 | 271 | 0.0 | 0.0 | 0.00 | 0.00 | 0.00 | 64 | 1014.2 |
| 20260508040050 | 12 | 271 | 0.0 | 0.0 | 0.00 | 0.00 | 0.00 | 64 | 1014.2 |
| 20260508034550 | 12 | 271 | 0.0 | 0.0 | 0.00 | 0.00 | 0.00 | 64 | 1014.1 |
| 20260508033050 | 12 | 271 | 0.0 | 1.6 | 0.00 | 0.00 | 0.00 | 65 | 1014.2 |
| 20260508030056 | 12 | 271 | 0.0 | 0.0 | 0.00 | 0.00 | 0.00 | 62 | 1014.3 |
| 20260508024555 | 13 | 271 | 0.0 | 0.0 | 0.00 | 0.00 | 0.00 | 60 | 1014.3 |
| 20260508023047 | 13 | 271 | 0.0 | 0.0 | 0.00 | 0.00 | 0.00 | 58 | 1014.3 |
| 20260508021546 | 13 | 271 | 0.0 | 0.0 | 0.00 | 0.00 | 0.00 | 58 | 1014.2 |
| 20260508020045 | 14 | 271 | 0.0 | 0.0 | 0.00 | 0.00 | 0.00 | 55 | 1014.0 |
| 20260508014545 | 15 | 271 | 0.0 | 0.0 | 0.00 | 0.00 | 0.00 | 53 | 1013.7 |
| 20260508013045 | 15 | 271 | 0.0 | 0.0 | 0.00 | 0.00 | 0.00 | 52 | 1013.7 |
| 20260508011545 | 16 | 271 | 0.0 | 0.0 | 0.00 | 0.00 | 0.00 | 49 | 1013.6 |
| 20260508010044 | 16 | 271 | 0.0 | 0.0 | 0.00 | 0.00 | 0.00 | 46 | 1013.4 |
| 20260508004544 | 17 | 271 | 0.0 | 0.0 | 0.00 | 0.00 | 0.00 | 44 | 1013.2 |
| 20260508003043 | 18 | 262 | 0.0 | 0.0 | 0.00 | 0.00 | 0.00 | 42 | 1013.1 |
| 20260508001546 | 18 | 234 | 0.0 | 1.6 | 0.00 | 0.00 | 0.00 | 41 | 1013.1 |
| 20260508000041 | 18 | 229 | 0.0 | 1.6 | 0.00 | 0.00 | 0.00 | 40 | 1013.0 |
| 20260507234543 | 18 | 251 | 0.0 | 6.4 | 0.00 | 0.00 | 0.00 | 39 | 1013.1 |
| 20260507233040 | 18 | 197 | 0.0 | 4.8 | 0.00 | 0.00 | 0.00 | 39 | 1013.2 |
| 20260507231541 | 19 | 235 | 0.0 | 9.7 | 0.00 | 0.00 | 0.00 | 39 | 1013.3 |
| 20260507230037 | 19 | 200 | 0.0 | 14.5 | 0.00 | 0.00 | 0.00 | 38 | 1013.4 |
| 20260507224536 | 19 | 161 | 0.0 | 1.6 | 0.00 | 0.00 | 0.00 | 40 | 1013.5 |
| 20260507223035 | 19 | 218 | 0.0 | 6.4 | 0.00 | 0.00 | 0.00 | 39 | 1013.7 |
| 20260507221534 | 19 | 209 | 0.0 | 1.6 | 0.00 | 0.00 | 0.00 | 39 | 1013.7 |
| 20260507220032 | 19 | 163 | 0.0 | 8.0 | 0.00 | 0.00 | 0.00 | 38 | 1013.9 |
| 20260507214530 | 19 | 183 | 0.0 | 11.3 | 0.00 | 0.00 | 0.00 | 39 | 1013.7 |
| 20260507213029 | 19 | 207 | 0.0 | 11.3 | 0.00 | 0.00 | 0.00 | 39 | 1013.9 |
| 20260507211527 | 18 | 178 | 0.0 | 9.7 | 0.00 | 0.00 | 0.00 | 39 | 1014.1 |
| 20260507210023 | 18 | 225 | 0.0 | 16.1 | 0.00 | 0.00 | 0.00 | 39 | 1014.3 |
| 20260507204521 | 18 | 158 | 0.0 | 8.0 | 0.00 | 0.00 | 0.00 | 39 | 1014.5 |
| 20260507203019 | 18 | 234 | 0.0 | 6.4 | 0.00 | 0.00 | 0.00 | 39 | 1014.8 |
| 20260507201517 | 18 | 240 | 0.0 | 9.7 | 0.00 | 0.00 | 0.00 | 39 | 1015.0 |
| 20260507200015 | 18 | 263 | 0.0 | 1.6 | 0.00 | 0.00 | 0.00 | 39 | 1015.0 |
| 20260507194511 | 18 | 186 | 0.0 | 8.0 | 0.00 | 0.00 | 0.00 | 38 | 1015.0 |
| 20260507193009 | 18 | 245 | 0.0 | 8.0 | 0.00 | 0.00 | 0.00 | 39 | 1015.2 |
| 20260507191507 | 18 | 281 | 0.0 | 8.0 | 0.00 | 0.00 | 0.00 | 40 | 1015.5 |
| 20260507190006 | 17 | 346 | 0.0 | 1.6 | 0.00 | 0.00 | 0.00 | 39 | 1015.6 |
| 20260507184502 | 17 | 148 | 0.0 | 11.3 | 0.00 | 0.00 | 0.00 | 38 | 1015.8 |
| 20260507183001 | 18 | 291 | 0.0 | 6.4 | 0.00 | 0.00 | 0.00 | 41 | 1015.8 |
| 20260507181558 | 17 | 355 | 1.6 | 16.1 | 0.00 | 0.00 | 0.00 | 40 | 1016.1 |
| 20260507180054 | 17 | 320 | 1.6 | 17.7 | 0.00 | 0.00 | 0.00 | 39 | 1016.2 |
| 20260507174551 | 17 | 205 | 0.0 | 6.4 | 0.00 | 0.00 | 0.00 | 43 | 1016.4 |
| 20260507173048 | 17 | 213 | 0.0 | 4.8 | 0.00 | 0.00 | 0.00 | 41 | 1016.6 |
| 20260507171550 | 16 | 275 | 0.0 | 16.1 | 0.00 | 0.00 | 0.00 | 39 | 1016.9 |